Voltar ao catálogo

ONEWEB-0340

AtivoComunicaçõesPO
NORAD 49206·PAYLOAD·🇬🇧 United Kingdom

Lançado Sep 14, 2021 de Baikonur Cosmodrome

Loading…

Próximas Passagens (próximas 24 horas)

TLE

AtualizadoSource: CelesTrak SupGP

Época: Sep 14, 2026, 20:14 UTC

1 49206C 21083W   26257.84322176 -.00002848  00000+0 -72332-2 0  2579
2 49206  87.9165 317.6451 0001953 103.5876   8.9247 13.18690461    14

Acompanhe ONEWEB-0340 em tempo real com AllMySat

Download on the App Store